Weather History for Waterloo, IA

Change the Weather History Date:

Friday, January 25, 2013

  Actual Average Record
Temperature  
Mean Temperature 19 °F 19 °F  
Max Temperature 31 °F 28 °F 61 °F (2002)
Min Temperature 7 °F 9 °F -29 °F (1936)
Degree Days  
Heating Degree Days 46 46  
Month to date heating degree days 1121 1170  
Since 1 July heating degree days 3797 3981  
Cooling Degree Days 0 0  
Month to date cooling degree days 0 0  
Year to date cooling degree days 0 0  
Moisture  
Dew Point 7 °F    
Average Humidity 59    
Maximum Humidity 73    
Minimum Humidity 45    
Precipitation  
Precipitation T in 0.03 in 0.56 in (1895)
Month to date precipitation 0.19 0.66  
Year to date precipitation 0.19 0.66  
Snow  
Snow T in 0.20 in 6.50 in (1895)
Month to date snowfall T 6.4  
Since 1 July snowfall 11.3 19.7  
Snow Depth 0.00 in    
Sea Level Pressure  
Sea Level Pressure 30.15 in    
Wind  
Wind Speed 13 mph (West)    
Max Wind Speed 28 mph    
Max Gust Speed 36 mph    
Visibility 10 miles    
Events      
T = Trace of Precipitation, MM = Missing Value Source: NWS Daily Summary

Daily Weather History Graph

Daily Weather History Graph

Search for Another Location

Airport:

Trip Planner

Search our weather history database for the weather conditions in past years. The results will help you decide how hot, cold, wet, or windy it might be!

Date:

Astronomy

Jan. 25, 2013 Rise Set
Actual Time 7:29 AM CST 5:14 PM CST
Civil Twilight 6:59 AM CST 5:44 PM CST
Nautical Twilight 6:25 AM CST 6:19 PM CST
Astronomical Twilight 5:52 AM CST 6:52 PM CST
Moon 4:12 PM CST (1/25) 6:10 AM CST (1/25)
Length of Visible Light 10h 45m
Length of Day
9h 44m
Waxing Gibbous, 98% of the Moon is Illuminated
Jan 25
Waxing Gibbous
Jan 26
Full
Feb 3
Last Quarter
Feb 10
New
Feb 17
First Quarter

Hourly Weather History & Observations

Time (CST) Temp. Windchill Dew Point Humidity Pressure Visibility Wind Dir Wind Speed Gust Speed Precip Events Conditions
12:54 AM 19.0 °F 8.2 °F 5.0 °F 54% 30.25 in 10.0 mi SSE 9.2 mph - N/A   Overcast
1:54 AM 19.0 °F 7.5 °F 7.0 °F 59% 30.19 in 10.0 mi SSE 10.4 mph - N/A   Overcast
2:54 AM 19.9 °F 10.1 °F 8.1 °F 60% 30.20 in 10.0 mi SSW 8.1 mph - N/A   Overcast
3:54 AM 19.9 °F 10.1 °F 8.1 °F 60% 30.16 in 10.0 mi SSW 8.1 mph - N/A   Overcast
4:54 AM 19.9 °F 10.1 °F 7.0 °F 57% 30.13 in 10.0 mi SSW 8.1 mph - 0.00 in   Overcast
5:54 AM 17.1 °F 6.6 °F 6.1 °F 62% 30.13 in 10.0 mi SW 8.1 mph - N/A   Clear
6:54 AM 14.0 °F 2.9 °F 6.1 °F 71% 30.12 in 10.0 mi SSW 8.1 mph - N/A   Clear
7:54 AM 16.0 °F 2.9 °F 7.0 °F 68% 30.09 in 10.0 mi SW 11.5 mph - N/A   Clear
8:54 AM 19.0 °F 4.5 °F 9.0 °F 65% 30.09 in 10.0 mi WSW 16.1 mph - N/A   Clear
9:54 AM 21.9 °F 8.2 °F 8.1 °F 55% 30.09 in 10.0 mi West 16.1 mph 25.3 mph N/A   Clear
10:38 AM 24.8 °F 11.9 °F 12.2 °F 59% 30.05 in 10.0 mi West 16.1 mph - N/A   Mostly Cloudy
10:54 AM 24.1 °F 12.5 °F 12.9 °F 62% 30.09 in 10.0 mi WNW 12.7 mph 20.7 mph N/A   Overcast
11:54 AM 25.0 °F 12.2 °F 16.0 °F 69% 30.06 in 10.0 mi WNW 16.1 mph 21.9 mph N/A   Overcast
12:54 PM 27.0 °F 14.3 °F 16.0 °F 63% 30.07 in 10.0 mi WNW 17.3 mph 26.5 mph N/A   Overcast
1:54 PM 30.0 °F 19.1 °F 16.0 °F 56% 30.06 in 10.0 mi WNW 15.0 mph 27.6 mph N/A   Overcast
2:24 PM 28.4 °F 15.8 °F 15.8 °F 59% 30.02 in 10.0 mi WNW 18.4 mph 32.2 mph N/A   Scattered Clouds
2:54 PM 30.0 °F 19.1 °F 14.0 °F 51% 30.06 in 10.0 mi NW 15.0 mph 31.1 mph N/A   Partly Cloudy
3:54 PM 27.0 °F 12.2 °F 10.0 °F 49% 30.10 in 10.0 mi NW 24.2 mph 31.1 mph N/A   Clear
4:54 PM 21.9 °F 6.9 °F 3.0 °F 44% 30.13 in 10.0 mi NW 19.6 mph 28.8 mph N/A   Clear
5:54 PM 18.0 °F 4.2 °F 1.9 °F 50% 30.17 in 10.0 mi NNW 13.8 mph - N/A   Clear
6:54 PM 16.0 °F 2.9 °F 1.0 °F 52% 30.22 in 10.0 mi NW 11.5 mph - N/A   Clear
7:54 PM 12.9 °F -2.8 °F 1.9 °F 62% 30.24 in 10.0 mi NNW 15.0 mph - N/A   Clear
8:54 PM 10.9 °F -6.5 °F 1.0 °F 64% 30.26 in 10.0 mi NNW 17.3 mph 23.0 mph N/A   Clear
9:54 PM 9.0 °F -7.3 °F 1.0 °F 70% 30.28 in 10.0 mi NNW 13.8 mph - N/A   Clear
10:54 PM 8.1 °F -7.7 °F 1.0 °F 73% 30.32 in 10.0 mi NNW 12.7 mph - N/A   Clear
11:54 PM 7.0 °F -4.5 °F -0.0 °F 73% 30.34 in 10.0 mi NW 6.9 mph - N/A   Clear